EW2077 Weather Reports


Display with metric or nautical units.
time (UTC)temp
F
wind
direction
speed
MPH
gust
MPH
rain 1hr
in
rain 24hr
in
rain mn
in
humidity
%
barometer
mb
20260831060056 61 348 0.0 0.0 0.00 0.02 0.00 55 1037.0
20260831054553 62 348 0.0 0.0 0.00 0.02 0.02 52 1037.1
20260831053052 62 348 0.0 0.0 0.00 0.02 0.02 51 1037.3
20260831051551 63 350 0.0 0.0 0.00 0.02 0.02 50 1037.4
20260831050109 63 355 0.0 2.0 0.00 0.02 0.02 49 1037.6
20260831044607 63 15 0.0 2.0 0.00 0.02 0.02 50 1038.2
20260831043048 61 289 0.0 0.0 0.00 0.02 0.02 53 1037.9
20260831041552 60 283 0.0 0.0 0.00 0.02 0.02 60 1037.5
20260831040043 59 284 0.0 0.0 0.00 0.02 0.02 59 1037.1
20260831034542 59 284 0.0 0.0 0.00 0.02 0.02 60 1036.8
20260831033040 58 284 0.0 0.0 0.00 0.02 0.02 62 1036.8
20260831031545 58 284 0.0 0.0 0.00 0.02 0.02 63 1036.7
20260831030037 58 284 0.0 0.0 0.00 0.02 0.02 63 1036.5
20260831024554 59 284 0.0 0.0 0.00 0.02 0.02 63 1036.1
20260831023033 59 284 0.0 0.0 0.00 0.02 0.02 65 1035.6
20260831021532 60 284 0.0 0.0 0.00 0.02 0.02 68 1035.7
20260831020045 61 284 0.0 0.0 0.00 0.02 0.02 66 1035.4
20260831014528 62 283 0.0 0.0 0.00 0.02 0.02 64 1035.0
20260831013027 63 281 0.0 0.0 0.00 0.02 0.02 64 1034.9
20260831011527 63 249 0.0 0.0 0.00 0.02 0.02 62 1034.8
20260831010040 65 248 0.0 0.0 0.00 0.02 0.02 65 1034.6
20260831004526 66 248 0.0 0.0 0.00 0.02 0.02 61 1034.7
20260831003025 68 248 0.0 0.0 0.00 0.02 0.02 58 1034.5
20260831001535 68 248 0.0 0.0 0.00 0.02 0.02 57 1034.5
20260831000025 68 248 0.0 0.0 0.00 0.02 0.02 58 1034.4
20260830234538 68 31 0.0 0.0 0.00 0.02 0.02 57 1034.5
20260830233024 68 30 0.0 0.0 0.00 0.02 0.02 58 1034.4
20260830231523 66 30 0.0 0.0 0.00 0.02 0.02 63 1034.4
20260830230032 65 30 0.0 0.0 0.00 0.02 0.02 68 1034.4
20260830224530 64 30 0.0 0.0 0.00 0.02 0.02 73 1034.7
20260830223021 63 30 0.0 0.0 0.00 0.02 0.02 73 1034.5
20260830221519 62 30 0.0 0.0 0.00 0.02 0.02 75 1034.4
20260830220028 61 30 0.0 0.0 0.00 0.02 0.02 76 1034.5
20260830214518 61 30 0.0 0.0 0.02 0.02 0.02 75 1034.7
20260830213018 60 14 0.0 4.0 0.02 0.02 0.02 70 1034.7
20260830211517 59 348 1.0 5.0 0.02 0.02 0.02 75 1035.1
20260830210015 60 360 0.0 10.0 0.01 0.01 0.01 73 1034.9
20260830204513 64 13 1.0 9.0 0.00 0.00 0.00 59 1034.4
20260830203010 68 258 1.0 12.0 0.00 0.00 0.00 51 1033.7
20260830201528 70 150 1.0 6.0 0.00 0.00 0.00 50 1033.1
20260830200008 72 213 0.0 0.0 0.00 0.00 0.00 48 1032.6
20260830194509 73 214 0.0 5.0 0.00 0.00 0.00 45 1032.4
20260830193005 74 217 1.0 4.0 0.00 0.00 0.00 44 1032.1
20260830191505 76 227 1.0 4.0 0.00 0.00 0.00 38 1031.8
20260830190006 75 181 0.0 3.0 0.00 0.00 0.00 38 1032.0
20260830184600 72 175 0.0 1.0 0.00 0.00 0.00 48 1032.3
20260830183100 72 175 0.0 0.0 0.00 0.00 0.00 49 1032.6
20260830181608 72 175 0.0 1.0 0.00 0.00 0.00 45 1032.5
20260830180108 73 168 0.0 0.0 0.00 0.00 0.00 44 1032.6
20260830174605 73 168 0.0 0.0 0.00 0.00 0.00 44 1033.0
20260830173101 72 159 0.0 0.0 0.00 0.00 0.00 44 1032.8
20260830171552 71 155 0.0 3.0 0.00 0.00 0.00 48 1033.0
20260830170047 70 94 0.0 0.0 0.00 0.00 0.00 48 1033.3
20260830164548 70 93 0.0 2.0 0.00 0.00 0.00 48 1033.5
20260830163043 69 92 0.0 0.0 0.00 0.00 0.00 52 1033.5
20260830161541 68 92 0.0 0.0 0.00 0.00 0.00 50 1033.6
20260830160036 67 92 0.0 0.0 0.00 0.00 0.00 56 1033.8
20260830154532 64 92 0.0 0.0 0.00 0.00 0.00 61 1033.8
20260830153036 61 92 0.0 1.0 0.00 0.00 0.00 65 1033.8
20260830151529 61 92 0.0 0.0 0.00 0.00 0.00 71 1033.7
20260830150023 60 92 0.0 0.0 0.00 0.00 0.00 73 1033.8
20260830144532 57 92 0.0 0.0 0.00 0.00 0.00 76 1033.5
20260830143017 55 92 0.0 0.0 0.00 0.00 0.00 75 1033.5
20260830141517 54 92 0.0 0.0 0.00 0.00 0.00 76 1033.7
20260830140016 53 92 0.0 0.0 0.00 0.00 0.00 79 1033.9
20260830134515 53 92 0.0 0.0 0.00 0.00 0.00 79 1033.6
20260830133033 52 92 0.0 0.0 0.00 0.00 0.00 77 1033.7
20260830131512 51 92 0.0 0.0 0.00 0.00 0.00 78 1033.6
20260830130011 51 92 0.0 0.0 0.00 0.00 0.00 77 1033.3
20260830124514 51 92 0.0 0.0 0.00 0.00 0.00 77 1033.2
20260830123009 51 92 0.0 0.0 0.00 0.00 0.00 77 1032.9
20260830121506 51 92 0.0 0.0 0.00 0.00 0.00 76 1032.7
20260830120004 51 92 0.0 0.0 0.00 0.00 0.00 76 1032.4
20260830114504 51 92 0.0 0.0 0.00 0.00 0.00 75 1032.2
20260830113101 52 92 0.0 0.0 0.00 0.00 0.00 75 1032.1
20260830111559 52 92 0.0 0.0 0.00 0.00 0.00 74 1032.1
20260830110108 52 92 0.0 0.0 0.00 0.00 0.00 73 1032.3
20260830104557 53 92 0.0 0.0 0.00 0.00 0.00 72 1032.4
20260830103055 53 92 0.0 0.0 0.00 0.00 0.00 72 1032.1
20260830101553 53 92 0.0 0.0 0.00 0.00 0.00 72 1032.2
20260830100053 53 92 0.0 0.0 0.00 0.00 0.00 73 1032.0
20260830094609 53 92 0.0 0.0 0.00 0.00 0.00 74 1032.0
20260830093054 53 92 0.0 0.0 0.00 0.00 0.00 74 1031.9
20260830091550 53 92 0.0 0.0 0.00 0.00 0.00 74 1031.7
20260830090050 54 92 0.0 0.0 0.00 0.00 0.00 73 1031.8
20260830084544 54 92 0.0 0.0 0.00 0.00 0.00 73 1031.7
20260830083042 54 92 0.0 0.0 0.00 0.00 0.00 71 1031.8
20260830081540 55 92 0.0 0.0 0.00 0.00 0.00 70 1031.8
20260830080046 55 92 0.0 0.0 0.00 0.00 0.00 70 1032.1
20260830074535 56 92 0.0 0.0 0.00 0.00 0.00 69 1032.2
20260830073033 56 92 0.0 0.0 0.00 0.00 0.00 68 1032.3
20260830071536 56 92 0.0 0.0 0.00 0.00 0.00 70 1032.3
20260830070037 56 92 0.0 0.0 0.00 0.00 0.00 70 1032.4
20260830064539 56 92 0.0 0.0 0.00 0.00 0.00 70 1032.7
20260830063022 57 92 0.0 0.0 0.00 0.00 0.00 69 1033.0
20260830061517 57 92 0.0 0.0 0.00 0.00 0.00 67 1033.3